Location: Champignolles
(47.0543°N, 4.5663°E)
Time: 00:21:10
(UTC+00:00)

N. Korean satellite - Pass Details

Date: 14 December 2021
Orbit: 447 x 491 km, 97.3° (Epoch: 21 January)

Event Time Altitude Azimuth Distance (km) Brightness Sun altitude
Rises 06:17:40 0° 353° (N) 2,462 9.8 -10.2°
Enters shadow 06:18:59 - 343° (NNW) 2,017 9.3 -10.0°
Exits shadow 06:25:39 - 248° (WSW) 2,141 9.4 -8.9°
Sets 06:26:34 0° 241° (WSW) 2,457 9.8 -8.8°
